Weather History for Norwood, MA

Change the Weather History Date:

Thursday, October 17, 2013

  Actual Average Record
Temperature  
Mean Temperature 60 °F -  
Max Temperature 71 °F 58 °F 75 °F (1999)
Min Temperature 48 °F 35 °F 28 °F (2012)
Degree Days  
Heating Degree Days 6    
Growing Degree Days 10 (Base 50)    
Moisture  
Dew Point 55 °F    
Average Humidity 86    
Maximum Humidity 100    
Minimum Humidity 61    
Precipitation  
Precipitation 0.01 in - - ()
Sea Level Pressure  
Sea Level Pressure 29.84 in    
Wind  
Wind Speed 2 mph (SSW)    
Max Wind Speed 10 mph    
Max Gust Speed 17 mph    
Visibility 5 miles    
Events Fog , Rain    
Averages and records for this station are not official NWS values.
T = Trace of Precipitation, MM = Missing Value Source: NWS Daily Summary

Daily Weather History Graph

Daily Weather History Graph

Search for Another Location

Airport:

Trip Planner

Search our weather history database for the weather conditions in past years. The results will help you decide how hot, cold, wet, or windy it might be!

Date:

Astronomy

Oct. 17, 2013 Rise Set
Actual Time 6:59 AM EDT 5:59 PM EDT
Civil Twilight 6:31 AM EDT 6:27 PM EDT
Nautical Twilight 5:59 AM EDT 7:00 PM EDT
Astronomical Twilight 5:26 AM EDT 7:32 PM EDT
Moon 5:12 PM EDT (10/17) 5:27 AM EDT (10/17)
Length of Visible Light 11h 56m
Length of Day
10h 59m
Waxing Gibbous, 98% of the Moon is Illuminated
Oct 17
Waxing Gibbous
Oct 18
Full
Oct 26
Last Quarter
Nov 3
New
Nov 10
First Quarter

Hourly Weather History & Observations

Time (EDT) Temp. Dew Point Humidity Pressure Visibility Wind Dir Wind Speed Gust Speed Precip Events Conditions
12:53 AM 55.0 °F 53.1 °F 93% 29.92 in 6.0 mi Calm Calm - N/A   Overcast
1:16 AM 55.4 °F 53.6 °F 94% 29.91 in 2.5 mi Calm Calm - N/A   Overcast
1:27 AM 53.6 °F 53.6 °F 100% 29.91 in 0.8 mi Calm Calm - N/A   Overcast
1:40 AM 53.6 °F 53.6 °F 100% 29.90 in 0.5 mi Calm Calm - N/A Fog Fog
1:53 AM 54.0 °F 53.1 °F 97% 29.90 in 0.5 mi SSE 3.5 mph - N/A Fog Fog
2:53 AM 54.0 °F 53.1 °F 97% 29.89 in 0.5 mi Calm Calm - N/A Fog Fog
3:53 AM 53.1 °F 52.0 °F 96% 29.88 in 0.2 mi Calm Calm - N/A Fog Fog
4:27 AM 53.6 °F 51.8 °F 94% 29.87 in 1.0 mi Calm Calm - N/A   Mostly Cloudy
4:32 AM 53.6 °F 51.8 °F 94% 29.87 in 2.0 mi Calm Calm - N/A   Scattered Clouds
4:40 AM 51.8 °F 50.0 °F 94% 29.87 in 0.8 mi Calm Calm - N/A   Mist
4:53 AM 51.1 °F 50.0 °F 96% 29.86 in 0.2 mi Calm Calm - N/A Fog Fog
5:53 AM 50.0 °F 48.0 °F 93% 29.86 in 0.2 mi Calm Calm - N/A Fog Fog
6:17 AM 51.8 °F 50.0 °F 94% 29.86 in 1.2 mi SSE 3.5 mph - N/A   Scattered Clouds
6:21 AM 51.8 °F 50.0 °F 94% 29.86 in 3.0 mi Calm Calm - N/A   Scattered Clouds
6:44 AM 50.0 °F 48.2 °F 94% 29.85 in 2.0 mi Calm Calm - N/A   Scattered Clouds
6:51 AM 50.0 °F 48.2 °F 94% 29.85 in 2.5 mi Calm Calm - N/A   Mostly Cloudy
6:53 AM 48.9 °F 48.9 °F 100% 29.86 in 1.8 mi Calm Calm - N/A   Mostly Cloudy
7:12 AM 53.6 °F 51.8 °F 94% 29.86 in 3.0 mi Calm Calm - N/A   Overcast
7:28 AM 55.4 °F 53.6 °F 94% 29.86 in 4.0 mi South 4.6 mph - N/A   Overcast
7:53 AM 57.0 °F 55.9 °F 96% 29.87 in 4.0 mi Calm Calm - N/A   Overcast
8:19 AM 57.2 °F 55.4 °F 94% 29.87 in 5.0 mi SW 5.8 mph - N/A   Overcast
8:53 AM 60.1 °F 57.0 °F 90% 29.87 in 6.0 mi SW 4.6 mph - N/A   Overcast
9:31 AM 62.6 °F 57.2 °F 82% 29.86 in 10.0 mi SW 5.8 mph - N/A   Mostly Cloudy
9:53 AM 63.0 °F 57.0 °F 81% 29.86 in 10.0 mi WSW 5.8 mph - N/A   Mostly Cloudy
10:12 AM 64.4 °F 57.2 °F 77% 29.86 in 10.0 mi SW 5.8 mph - N/A   Scattered Clouds
10:53 AM 69.1 °F 57.9 °F 68% 29.85 in 10.0 mi WSW 8.1 mph 17.3 mph N/A   Mostly Cloudy
11:53 AM 66.9 °F 57.9 °F 73% 29.84 in 10.0 mi WSW 8.1 mph - N/A   Overcast
12:53 PM 68.0 °F 57.9 °F 70% 29.82 in 10.0 mi WSW 6.9 mph - N/A   Overcast
1:13 PM 69.8 °F 57.2 °F 64% 29.81 in 10.0 mi WSW 10.4 mph - N/A   Partly Cloudy
1:53 PM 69.1 °F 57.9 °F 68% 29.81 in 10.0 mi SSW 10.4 mph - N/A   Mostly Cloudy
2:05 PM 69.8 °F 57.2 °F 64% 29.80 in 10.0 mi SW 10.4 mph - N/A   Mostly Cloudy
2:53 PM 71.1 °F 57.0 °F 61% 29.79 in 10.0 mi SSW 10.4 mph - N/A   Scattered Clouds
3:53 PM 71.1 °F 57.0 °F 61% 29.77 in 10.0 mi SSW 9.2 mph - N/A   Clear
4:53 PM 70.0 °F 57.0 °F 63% 29.76 in 10.0 mi WSW 9.2 mph - N/A   Clear
5:53 PM 66.0 °F 57.0 °F 73% 29.76 in 10.0 mi South 3.5 mph - N/A   Clear
6:53 PM 62.1 °F 57.0 °F 84% 29.78 in 10.0 mi SSW 4.6 mph - N/A   Clear
7:53 PM 59.0 °F 55.9 °F 90% 29.77 in 8.0 mi Calm Calm - N/A   Clear
8:53 PM 57.9 °F 57.0 °F 97% 29.77 in 6.0 mi Calm Calm - N/A   Clear
9:46 PM 60.8 °F 57.2 °F 88% 29.76 in 10.0 mi South 5.8 mph - N/A   Scattered Clouds
9:53 PM 61.0 °F 57.9 °F 90% 29.76 in 6.0 mi South 5.8 mph - N/A   Mostly Cloudy
10:53 PM 61.0 °F 59.0 °F 93% 29.74 in 5.0 mi South 6.9 mph - N/A   Overcast
11:53 PM 62.1 °F 59.0 °F 90% 29.73 in 5.0 mi Variable 5.8 mph - 0.01 in Rain Light Rain